Time,TemperatureF,DewpointF,PressureIn,WindDirection,WindDirectionDegrees,WindSpeedMPH,WindSpeedGustMPH,Humidity,HourlyPrecipIn,Conditions,Clouds,dailyrainin,SoftwareType,DateUTC
2013-02-07 00:02:00,33.0,28.0,30.11,SSW,202,0.0,3.0,82,0.00,,,0.00,,2013-02-07 06:02:00,
2013-02-07 00:11:00,33.0,28.0,30.11,SSW,202,0.0,3.0,82,0.00,,,0.00,,2013-02-07 06:11:00,
2013-02-07 00:22:00,33.0,28.0,30.11,SSW,200,0.0,2.0,82,0.00,,,0.00,,2013-02-07 06:22:00,
2013-02-07 00:32:00,33.0,28.0,30.09,SSE,149,2.0,3.0,82,0.00,,,0.00,,2013-02-07 06:32:00,
2013-02-07 00:43:00,33.0,28.0,30.09,SSE,149,2.0,3.0,82,0.00,,,0.00,,2013-02-07 06:43:00,
2013-02-07 00:52:00,33.0,28.0,30.09,South,170,0.0,2.0,82,0.00,,,0.00,,2013-02-07 06:52:00,
2013-02-07 01:01:00,33.0,28.0,30.10,SSE,153,0.0,3.0,82,0.00,,,0.00,,2013-02-07 07:01:00,
2013-02-07 01:11:00,33.0,28.0,30.10,SSE,162,2.0,3.0,83,0.00,,,0.00,,2013-02-07 07:11:00,
2013-02-07 01:22:00,33.0,28.0,30.10,SSE,162,2.0,3.0,83,0.00,,,0.00,,2013-02-07 07:22:00,
2013-02-07 01:32:00,33.0,28.0,30.09,SSE,167,2.0,5.0,83,0.00,,,0.00,,2013-02-07 07:32:00,
2013-02-07 01:42:00,33.0,28.0,30.09,SSE,167,2.0,5.0,83,0.00,,,0.00,,2013-02-07 07:42:00,
2013-02-07 01:52:00,33.0,28.0,30.09,SSE,165,0.0,0.0,83,0.00,,,0.00,,2013-02-07 07:52:00,
2013-02-07 02:01:00,33.0,28.0,30.09,SSE,157,3.0,4.0,83,0.00,,,0.00,,2013-02-07 08:01:00,
2013-02-07 02:11:00,33.0,28.0,30.09,SSE,157,3.0,4.0,83,0.00,,,0.00,,2013-02-07 08:11:00,
2013-02-07 02:21:00,33.0,28.0,30.09,SE,130,0.0,3.0,83,0.00,,,0.00,,2013-02-07 08:21:00,
2013-02-07 02:32:00,33.0,29.0,30.09,SSE,158,0.0,0.0,84,0.00,,,0.00,,2013-02-07 08:32:00,
2013-02-07 02:42:00,33.0,29.0,30.09,SSE,158,0.0,0.0,84,0.00,,,0.00,,2013-02-07 08:42:00,
2013-02-07 02:52:00,33.0,29.0,30.09,SSE,152,0.0,1.0,84,0.00,,,0.00,,2013-02-07 08:52:00,
2013-02-07 03:02:00,32.0,28.0,30.08,SE,142,1.0,3.0,84,0.00,,,0.00,,2013-02-07 09:02:00,
2013-02-07 03:11:00,32.0,28.0,30.08,SE,142,1.0,3.0,84,0.00,,,0.00,,2013-02-07 09:11:00,
2013-02-07 03:21:00,32.0,28.0,30.08,SE,132,0.0,2.0,84,0.00,,,0.00,,2013-02-07 09:21:00,
2013-02-07 03:32:00,32.0,28.0,30.08,SE,133,0.0,0.0,84,0.00,,,0.00,,2013-02-07 09:32:00,
2013-02-07 03:41:00,32.0,28.0,30.08,SE,133,0.0,0.0,84,0.00,,,0.00,,2013-02-07 09:41:00,
2013-02-07 03:52:00,32.0,28.0,30.08,SE,133,0.0,0.0,84,0.00,,,0.00,,2013-02-07 09:52:00,
2013-02-07 04:01:00,32.0,28.0,30.07,ESE,102,0.0,1.0,84,0.00,,,0.00,,2013-02-07 10:01:00,
2013-02-07 04:11:00,32.0,28.0,30.07,ESE,102,0.0,1.0,84,0.00,,,0.00,,2013-02-07 10:11:00,
2013-02-07 04:22:00,32.0,28.0,30.07,ESE,103,0.0,0.0,84,0.00,,,0.00,,2013-02-07 10:22:00,
2013-02-07 04:32:00,32.0,28.0,30.07,ESE,102,0.0,1.0,85,0.00,,,0.00,,2013-02-07 10:32:00,
2013-02-07 04:42:00,32.0,28.0,30.07,ESE,102,0.0,1.0,85,0.00,,,0.00,,2013-02-07 10:42:00,
2013-02-07 04:51:00,32.0,28.0,30.06,SE,141,0.0,2.0,85,0.00,,,0.00,,2013-02-07 10:51:00,
2013-02-07 05:01:00,32.0,28.0,30.06,ESE,108,0.0,3.0,85,0.00,,,0.00,,2013-02-07 11:01:00,
2013-02-07 05:11:00,32.0,28.0,30.06,ESE,108,0.0,3.0,85,0.00,,,0.00,,2013-02-07 11:11:00,
2013-02-07 05:22:00,32.0,28.0,30.06,SSE,149,2.0,5.0,85,0.00,,,0.00,,2013-02-07 11:22:00,
2013-02-07 05:32:00,32.0,28.0,30.06,South,172,0.0,4.0,86,0.00,,,0.00,,2013-02-07 11:32:00,
2013-02-07 05:44:00,32.0,28.0,30.06,South,172,0.0,4.0,86,0.00,,,0.00,,2013-02-07 11:44:00,
2013-02-07 05:52:00,31.0,27.0,30.05,South,190,0.0,6.0,86,0.00,,,0.00,,2013-02-07 11:52:00,
2013-02-07 06:02:00,31.0,28.0,30.04,SSE,163,3.0,5.0,88,0.00,,,0.00,,2013-02-07 12:02:00,
2013-02-07 06:11:00,31.0,28.0,30.04,SSE,163,3.0,5.0,88,0.00,,,0.00,,2013-02-07 12:11:00,
2013-02-07 06:22:00,31.0,28.0,30.04,SSW,194,2.0,6.0,88,0.00,,,0.00,,2013-02-07 12:22:00,
2013-02-07 06:32:00,31.0,28.0,30.04,SSW,212,1.0,7.0,88,0.00,,,0.00,,2013-02-07 12:32:00,
2013-02-07 06:42:00,31.0,28.0,30.04,SSW,212,1.0,7.0,88,0.00,,,0.00,,2013-02-07 12:42:00,
2013-02-07 06:52:00,31.0,28.0,30.04,SSW,208,1.0,5.0,88,0.00,,,0.00,,2013-02-07 12:52:00,
2013-02-07 07:02:00,31.0,28.0,30.04,SSE,167,2.0,5.0,89,0.00,,,0.00,,2013-02-07 13:02:00,
2013-02-07 07:12:00,31.0,28.0,30.04,SSE,167,2.0,5.0,89,0.00,,,0.00,,2013-02-07 13:12:00,
2013-02-07 07:22:00,31.0,28.0,30.03,SSE,157,2.0,3.0,90,0.00,,,0.00,,2013-02-07 13:22:00,
2013-02-07 07:32:00,31.0,28.0,30.03,SSE,155,2.0,3.0,90,0.00,,,0.00,,2013-02-07 13:32:00,
2013-02-07 07:42:00,31.0,28.0,30.03,SSE,155,2.0,3.0,90,0.00,,,0.00,,2013-02-07 13:42:00,
2013-02-07 07:52:00,31.0,28.0,30.03,SSE,158,3.0,5.0,90,0.00,,,0.00,,2013-02-07 13:52:00,
2013-02-07 08:01:00,31.0,29.0,30.03,South,184,0.0,2.0,91,0.00,,,0.00,,2013-02-07 14:01:00,
2013-02-07 08:11:00,31.0,29.0,30.03,South,184,0.0,2.0,91,0.00,,,0.00,,2013-02-07 14:11:00,
2013-02-07 08:21:00,31.0,29.0,30.03,SE,146,3.0,3.0,91,0.00,,,0.00,,2013-02-07 14:21:00,
2013-02-07 08:32:00,31.0,29.0,30.02,SSE,156,1.0,3.0,91,0.00,,,0.00,,2013-02-07 14:32:00,
2013-02-07 08:42:00,31.0,29.0,30.02,SSE,156,1.0,3.0,91,0.00,,,0.00,,2013-02-07 14:42:00,
2013-02-07 08:52:00,32.0,30.0,30.03,SSE,164,0.0,3.0,92,0.00,,,0.00,,2013-02-07 14:52:00,
2013-02-07 09:02:00,32.0,30.0,30.02,SSE,165,2.0,3.0,92,0.00,,,0.00,,2013-02-07 15:02:00,
2013-02-07 09:11:00,32.0,30.0,30.02,SSE,165,2.0,3.0,92,0.00,,,0.00,,2013-02-07 15:11:00,
2013-02-07 09:22:00,32.0,30.0,30.02,SSE,161,0.0,2.0,92,0.00,,,0.00,,2013-02-07 15:22:00,
2013-02-07 09:32:00,32.0,30.0,30.02,SSE,163,1.0,3.0,92,0.00,,,0.00,,2013-02-07 15:32:00,
2013-02-07 09:42:00,32.0,30.0,30.02,SSE,163,1.0,3.0,92,0.00,,,0.00,,2013-02-07 15:42:00,
2013-02-07 09:52:00,32.0,30.0,30.01,SE,131,0.0,3.0,92,0.00,,,0.00,,2013-02-07 15:52:00,
2013-02-07 10:01:00,32.0,30.0,30.01,SE,131,0.0,3.0,92,0.00,,,0.00,,2013-02-07 16:01:00,
2013-02-07 10:11:00,32.0,30.0,30.01,SE,131,0.0,3.0,92,0.00,,,0.00,,2013-02-07 16:11:00,
2013-02-07 10:21:00,33.0,31.0,30.01,SE,131,0.0,1.0,92,0.00,,,0.00,,2013-02-07 16:21:00,
2013-02-07 10:32:00,33.0,31.0,30.00,SSE,164,0.0,3.0,93,0.00,,,0.00,,2013-02-07 16:32:00,
2013-02-07 10:41:00,33.0,31.0,30.00,SSE,164,0.0,3.0,93,0.00,,,0.00,,2013-02-07 16:41:00,
2013-02-07 10:52:00,33.0,31.0,30.01,South,177,0.0,1.0,93,0.00,,,0.00,,2013-02-07 16:52:00,
2013-02-07 11:01:00,33.0,31.0,30.01,South,177,0.0,2.0,93,0.00,,,0.00,,2013-02-07 17:01:00,
2013-02-07 11:11:00,33.0,31.0,30.01,South,177,0.0,2.0,93,0.00,,,0.00,,2013-02-07 17:11:00,
2013-02-07 11:21:00,33.0,31.0,30.00,South,177,0.0,0.0,94,0.00,,,0.00,,2013-02-07 17:21:00,
2013-02-07 11:32:00,33.0,31.0,30.00,ESE,113,0.0,3.0,94,0.01,,,0.01,,2013-02-07 17:32:00,
2013-02-07 11:42:00,33.0,31.0,30.00,ESE,113,0.0,3.0,94,0.01,,,0.01,,2013-02-07 17:42:00,
2013-02-07 11:52:00,33.0,31.0,29.98,ESE,113,0.0,0.0,94,0.02,,,0.02,,2013-02-07 17:52:00,
2013-02-07 12:01:00,33.0,31.0,29.98,ESE,113,0.0,0.0,94,0.02,,,0.02,,2013-02-07 18:01:00,
2013-02-07 12:11:00,33.0,31.0,29.98,ESE,113,0.0,0.0,94,0.02,,,0.02,,2013-02-07 18:11:00,
2013-02-07 12:23:00,34.0,32.0,29.98,ESE,113,0.0,0.0,94,0.03,,,0.03,,2013-02-07 18:23:00,
2013-02-07 12:31:00,33.0,31.0,29.97,ESE,113,0.0,0.0,94,0.02,,,0.03,,2013-02-07 18:31:00,
2013-02-07 12:42:00,33.0,31.0,29.97,ESE,113,0.0,0.0,94,0.02,,,0.03,,2013-02-07 18:42:00,
2013-02-07 12:52:00,33.0,31.0,29.96,ESE,113,0.0,0.0,94,0.02,,,0.04,,2013-02-07 18:52:00,
2013-02-07 13:01:00,33.0,32.0,29.96,ESE,113,0.0,2.0,95,0.02,,,0.04,,2013-02-07 19:01:00,
2013-02-07 13:11:00,33.0,32.0,29.96,ESE,113,0.0,2.0,95,0.02,,,0.04,,2013-02-07 19:11:00,
2013-02-07 13:22:00,33.0,32.0,29.95,ESE,113,0.0,0.0,95,0.02,,,0.05,,2013-02-07 19:22:00,
2013-02-07 13:31:00,33.0,32.0,29.95,ESE,113,0.0,0.0,95,0.03,,,0.06,,2013-02-07 19:31:00,
2013-02-07 13:41:00,33.0,32.0,29.95,ESE,113,0.0,0.0,95,0.03,,,0.06,,2013-02-07 19:41:00,
2013-02-07 13:52:00,33.0,32.0,29.94,East,94,1.0,2.0,95,0.02,,,0.06,,2013-02-07 19:52:00,
2013-02-07 14:01:00,33.0,32.0,29.94,ENE,76,0.0,2.0,95,0.03,,,0.07,,2013-02-07 20:01:00,
2013-02-07 14:11:00,33.0,32.0,29.94,ENE,76,0.0,2.0,95,0.03,,,0.07,,2013-02-07 20:11:00,
2013-02-07 14:22:00,33.0,32.0,29.93,ENE,76,1.0,2.0,95,0.03,,,0.07,,2013-02-07 20:22:00,
2013-02-07 14:31:00,33.0,32.0,29.92,ENE,70,0.0,2.0,96,0.04,,,0.09,,2013-02-07 20:31:00,
2013-02-07 14:41:00,33.0,32.0,29.92,ENE,70,0.0,2.0,96,0.04,,,0.09,,2013-02-07 20:41:00,
2013-02-07 14:52:00,33.0,32.0,29.91,ENE,70,1.0,2.0,96,0.03,,,0.09,,2013-02-07 20:52:00,
2013-02-07 15:02:00,33.0,32.0,29.91,ENE,70,0.0,2.0,96,0.02,,,0.09,,2013-02-07 21:02:00,
2013-02-07 15:11:00,33.0,32.0,29.91,ENE,70,0.0,2.0,96,0.02,,,0.09,,2013-02-07 21:11:00,
2013-02-07 15:21:00,32.0,31.0,29.91,ENE,70,2.0,2.0,96,0.02,,,0.10,,2013-02-07 21:21:00,
2013-02-07 15:31:00,32.0,31.0,29.90,ENE,70,0.0,2.0,96,0.01,,,0.10,,2013-02-07 21:31:00,
2013-02-07 15:42:00,32.0,31.0,29.90,ENE,70,0.0,2.0,96,0.01,,,0.10,,2013-02-07 21:42:00,
2013-02-07 15:52:00,32.0,31.0,29.90,ENE,70,0.0,0.0,96,0.02,,,0.11,,2013-02-07 21:52:00,
2013-02-07 16:02:00,32.0,31.0,29.90,ENE,70,0.0,0.0,96,0.02,,,0.11,,2013-02-07 22:02:00,
2013-02-07 16:11:00,32.0,31.0,29.90,ENE,70,0.0,0.0,96,0.02,,,0.11,,2013-02-07 22:11:00,
2013-02-07 16:21:00,32.0,31.0,29.89,ENE,70,0.0,0.0,96,0.01,,,0.11,,2013-02-07 22:21:00,
2013-02-07 16:32:00,32.0,31.0,29.89,ENE,70,1.0,1.0,96,0.01,,,0.11,,2013-02-07 22:32:00,
2013-02-07 16:42:00,32.0,31.0,29.89,ENE,70,1.0,1.0,96,0.01,,,0.11,,2013-02-07 22:42:00,
2013-02-07 16:52:00,32.0,31.0,29.89,NE,42,2.0,3.0,96,0.01,,,0.11,,2013-02-07 22:52:00,
2013-02-07 17:01:00,32.0,31.0,29.89,NE,42,0.0,2.0,96,0.00,,,0.11,,2013-02-07 23:01:00,
2013-02-07 17:11:00,32.0,31.0,29.89,NE,42,0.0,2.0,96,0.00,,,0.11,,2013-02-07 23:11:00,
2013-02-07 17:21:00,32.0,31.0,29.89,NE,42,0.0,2.0,96,0.00,,,0.11,,2013-02-07 23:21:00,
2013-02-07 17:32:00,32.0,31.0,29.89,NE,42,0.0,2.0,96,0.00,,,0.11,,2013-02-07 23:32:00,
2013-02-07 17:41:00,32.0,31.0,29.89,NE,42,0.0,2.0,96,0.00,,,0.11,,2013-02-07 23:41:00,
2013-02-07 18:22:00,32.0,31.0,29.92,NE,41,0.0,0.0,97,0.01,,,0.12,,2013-02-08 00:22:00,
2013-02-07 18:32:00,32.0,31.0,29.92,NE,41,0.0,0.0,97,0.00,,,0.12,,2013-02-08 00:32:00,
2013-02-07 18:42:00,32.0,31.0,29.92,NE,41,0.0,0.0,97,0.00,,,0.12,,2013-02-08 00:42:00,
2013-02-07 18:52:00,32.0,31.0,29.93,NE,41,0.0,0.0,97,0.00,,,0.12,,2013-02-08 00:52:00,
2013-02-07 19:01:00,32.0,31.0,29.93,NNE,30,0.0,0.0,97,0.00,,,0.12,,2013-02-08 01:01:00,
2013-02-07 19:11:00,32.0,31.0,29.93,NNE,30,0.0,0.0,97,0.00,,,0.12,,2013-02-08 01:11:00,
2013-02-07 19:21:00,32.0,31.0,29.93,NNE,30,0.0,0.0,97,0.00,,,0.12,,2013-02-08 01:21:00,
2013-02-07 19:31:00,32.0,31.0,29.93,NNE,30,0.0,0.0,97,0.00,,,0.12,,2013-02-08 01:31:00,
2013-02-07 19:41:00,32.0,31.0,29.93,NNE,30,0.0,0.0,97,0.00,,,0.12,,2013-02-08 01:41:00,
2013-02-07 19:52:00,32.0,31.0,29.93,NNE,30,0.0,0.0,97,0.00,,,0.12,,2013-02-08 01:52:00,
2013-02-07 20:01:00,32.0,31.0,29.93,NNE,30,0.0,0.0,97,0.00,,,0.12,,2013-02-08 02:01:00,
2013-02-07 20:32:00,32.0,31.0,29.94,NNE,31,0.0,0.0,97,0.00,,,0.12,,2013-02-08 02:32:00,
2013-02-07 20:42:00,32.0,31.0,29.94,NNE,31,0.0,0.0,97,0.00,,,0.12,,2013-02-08 02:42:00,
2013-02-07 20:52:00,31.0,30.0,29.95,NNE,31,0.0,0.0,97,0.00,,,0.12,,2013-02-08 02:52:00,
2013-02-07 21:01:00,30.0,29.0,29.96,NNE,31,0.0,0.0,96,0.00,,,0.12,,2013-02-08 03:01:00,
2013-02-07 21:12:00,30.0,29.0,29.96,NNE,31,0.0,0.0,96,0.00,,,0.12,,2013-02-08 03:12:00,
2013-02-07 21:22:00,26.0,25.0,29.98,ENE,61,0.0,0.0,96,0.00,,,0.12,,2013-02-08 03:22:00,
2013-02-07 21:32:00,26.0,25.0,29.98,NNW,344,0.0,0.0,96,0.00,,,0.12,,2013-02-08 03:32:00,
2013-02-07 21:41:00,26.0,25.0,29.98,NNW,344,0.0,0.0,96,0.00,,,0.12,,2013-02-08 03:41:00,
2013-02-07 21:52:00,24.0,23.0,29.99,NNE,26,0.0,0.0,96,0.00,,,0.12,,2013-02-08 03:52:00,
2013-02-07 22:01:00,24.0,23.0,29.99,North,355,0.0,0.0,96,0.00,,,0.12,,2013-02-08 04:01:00,
2013-02-07 22:11:00,24.0,23.0,29.99,North,355,0.0,0.0,96,0.00,,,0.12,,2013-02-08 04:11:00,
2013-02-07 22:21:00,23.0,22.0,30.01,North,9,0.0,0.0,95,0.00,,,0.12,,2013-02-08 04:21:00,
2013-02-07 22:32:00,22.0,21.0,30.01,North,360,0.0,0.0,95,0.00,,,0.12,,2013-02-08 04:32:00,
2013-02-07 22:41:00,22.0,21.0,30.01,North,360,0.0,0.0,95,0.00,,,0.12,,2013-02-08 04:41:00,
2013-02-07 22:52:00,21.0,20.0,30.01,NNE,28,0.0,0.0,94,0.00,,,0.12,,2013-02-08 04:52:00,
2013-02-07 23:02:00,21.0,20.0,30.01,NNE,19,0.0,0.0,94,0.00,,,0.12,,2013-02-08 05:02:00,
2013-02-07 23:11:00,21.0,20.0,30.01,NNE,19,0.0,0.0,94,0.00,,,0.12,,2013-02-08 05:11:00,
2013-02-07 23:22:00,21.0,20.0,30.02,NE,39,0.0,0.0,94,0.00,,,0.12,,2013-02-08 05:22:00,
2013-02-07 23:32:00,21.0,20.0,30.02,NE,36,0.0,0.0,94,0.00,,,0.12,,2013-02-08 05:32:00,
2013-02-07 23:42:00,21.0,20.0,30.02,NE,36,0.0,0.0,94,0.00,,,0.12,,2013-02-08 05:42:00,
2013-02-07 23:52:00,21.0,20.0,30.03,NE,45,0.0,0.0,94,0.00,,,0.12,,2013-02-08 05:52:00,